Location: South Tamworth Observatory
(43.8246°N, 71.3026°W)
Time: 06:00:21
(UTC-04:00)

Amateur Radio Satellites - All Passes

Search period start: 17 April 2014 05:30
Search period end: 18 April 2014 05:30
Location: South Tamworth Observatory, 43.8246°N, 71.3026°W

Satellite Date Start Highest point End Downlink Frequencies (MHz)
Time Altitude Azimuth
TMSAT-1 17 Apr 05:42:12 05:45:46 19° 300° (WNW) 05:49:20 436.925 FM
JAS-1B 17 Apr 05:46:22 05:51:41 40° 293° (WNW) 05:56:59 435.800 - 435.900 CW/SSB
AO-7 17 Apr 05:57:03 06:05:22 79° 291° (WNW) 06:13:41 29.400 - 29.500 MHz
Hamsat 17 Apr 05:58:17 06:00:55 16° 91° (E) 06:03:32 145.90 MHz
Uosat F 17 Apr 06:17:04 06:20:44 21° 298° (WNW) 06:24:23 435.120 FM
MaSat-1 17 Apr 06:24:29 06:25:28 11° 53° (NE) 06:26:29 437.345 MHz
AO-40 17 Apr 06:28:34 10:36:28 27° 151° (SSE) 12:18:09 Beacon 2401.320
JAS-2 17 Apr 06:48:05 06:51:45 18° 92° (E) 06:55:37 435.800 - 435.900 CW/SSB, 435.910 FM
STRAND 1 17 Apr 06:59:26 07:04:26 54° 260° (W) 07:09:28 ?
RS-15 17 Apr 07:21:08 07:32:17 67° 117° (ESE) 07:43:05 29.354 - 29.394 USB, Beacon 29.352 USB
KITSAT 1 17 Apr 07:29:30 07:34:05 16° 348° (NNW) 07:38:41 435.175 FM
Hamsat 17 Apr 07:32:59 07:37:12 51° 287° (WNW) 07:41:25 145.90 MHz
SO-67 17 Apr 07:34:13 07:37:20 29° 96° (E) 07:40:26 435.3500 MHz FM
AO-7 17 Apr 07:51:20 07:56:55 21° 312° (NW) 08:02:32 29.400 - 29.500 MHz
MaSat-1 17 Apr 08:01:15 08:03:59 37° 246° (WSW) 08:07:09 437.345 MHz
PCSat 17 Apr 08:01:57 08:03:55 12° 31° (NNE) 08:05:53 145.825 MHz
JAS-2 17 Apr 08:32:02 08:37:14 60° 288° (WNW) 08:42:51 435.800 - 435.900 CW/SSB, 435.910 FM
Sapphire 17 Apr 08:58:45 09:03:04 23° 43° (NE) 09:07:22 437.095 MHz 1200 baud AX-25 AFSK
SO-67 17 Apr 09:07:54 09:10:18 18° 293° (WNW) 09:12:41 435.3500 MHz FM
HO-68 17 Apr 09:22:37 09:29:14 38° 97° (E) 09:35:49 435.675 MHz FM
KITSAT 1 17 Apr 09:28:15 09:33:26 18° 19° (NNE) 09:38:34 435.175 FM
RS-15 17 Apr 09:34:44 09:45:16 44° 322° (NW) 09:55:37 29.354 - 29.394 USB, Beacon 29.352 USB
PCSat 17 Apr 09:43:28 09:48:44 48° 53° (NE) 09:53:57 145.825 MHz
FUNcube-1 17 Apr 10:19:45 10:22:22 16° 92° (E) 10:25:00 145.950 - 145.970 MHz USB
Saudisat 1A 17 Apr 10:33:32 10:35:07 12° 108° (ESE) 10:36:43 436.775 MHz
Oscar 11 17 Apr 10:35:57 10:40:19 74° 102° (ESE) 10:44:40 145.825 FM, Beacon 2401.500 USB
Sapphire 17 Apr 10:41:36 10:46:59 67° 243° (WSW) 10:52:20 437.095 MHz 1200 baud AX-25 AFSK
HO-68 17 Apr 11:10:16 11:17:00 45° 296° (WNW) 11:23:44 435.675 MHz FM
KITSAT 1 17 Apr 11:23:33 11:31:16 45° 46° (NE) 11:38:55 435.175 FM
PCSat 17 Apr 11:27:24 11:31:53 27° 251° (WSW) 11:36:20 145.825 MHz
RS-15 17 Apr 11:52:52 12:01:25 25° 355° (N) 12:09:57 29.354 - 29.394 USB, Beacon 29.352 USB
FUNcube-1 17 Apr 11:54:59 11:59:03 48° 288° (WNW) 12:03:11 145.950 - 145.970 MHz USB
Oscar 19 17 Apr 12:00:13 12:02:55 15° 58° (ENE) 12:05:37 437.125 CW, 437.150 USB
Oscar 16 17 Apr 12:07:16 12:10:38 18° 60° (ENE) 12:14:00 437.025 USB, Beacon 2401.1428
Saudisat 1A 17 Apr 12:09:36 12:14:04 82° 305° (NW) 12:18:34 436.775 MHz
Oscar 11 17 Apr 12:14:08 12:15:55 12° 299° (WNW) 12:17:43 145.825 FM, Beacon 2401.500 USB
Uribyol 2 17 Apr 12:38:02 12:41:29 19° 60° (ENE) 12:44:57 436.500 FM
AO-27 17 Apr 13:15:26 13:20:09 37° 67° (ENE) 13:24:53 436.795 MHz FM
KITSAT 1 17 Apr 13:19:04 13:26:48 50° 247° (WSW) 13:34:28 435.175 FM
ITAMSAT 1 17 Apr 13:26:32 13:31:27 45° 69° (ENE) 13:36:22 435.822 SSB
Oscar 19 17 Apr 13:36:25 13:41:33 84° 256° (WSW) 13:46:45 437.125 CW, 437.150 USB
Oscar 16 17 Apr 13:44:21 13:49:27 66° 258° (WSW) 13:54:36 437.025 USB, Beacon 2401.1428
TMSAT-1 17 Apr 13:45:57 13:49:16 17° 60° (ENE) 13:52:35 436.925 FM
Saudisat 1A 17 Apr 13:51:44 13:54:23 15° 325° (NW) 13:57:03 436.775 MHz
AO-Echo 17 Apr 13:56:47 14:02:00 67° 73° (ENE) 14:07:07 ?
RS-15 17 Apr 14:08:25 14:18:11 35° 30° (NNE) 14:28:01 29.354 - 29.394 USB, Beacon 29.352 USB
Uribyol 2 17 Apr 14:15:21 14:20:28 64° 258° (WSW) 14:25:37 436.500 FM
Uosat F 17 Apr 14:17:04 14:18:59 12° 57° (ENE) 14:20:54 435.120 FM
Gurwin Techsat 1B 17 Apr 14:33:42 14:38:53 58° 72° (ENE) 14:44:07 435.225 FM
JAS-1B 17 Apr 14:41:29 14:48:34 36° 65° (ENE) 14:54:39 435.800 - 435.900 CW/SSB
AO-27 17 Apr 14:55:12 14:59:43 30° 264° (W) 15:04:15 436.795 MHz FM
OPAL 17 Apr 14:55:38 15:00:15 31° 98° (E) 15:04:51 ?
AO-7 17 Apr 15:05:46 15:13:11 39° 58° (ENE) 15:20:37 29.400 - 29.500 MHz
ITAMSAT 1 17 Apr 15:06:59 15:11:08 24° 266° (W) 15:15:18 435.822 SSB
Oscar 19 17 Apr 15:21:28 15:21:41 10° 274° (W) 15:21:54 437.125 CW, 437.150 USB
TMSAT-1 17 Apr 15:23:19 15:28:35 73° 257° (WSW) 15:33:54 436.925 FM
AO-Echo 17 Apr 15:37:58 15:41:12 16° 270° (W) 15:44:25 ?
ISS 17 Apr 15:50:10 15:53:03 27° 137° (SE) 15:55:57 145.800 FM
Uosat F 17 Apr 15:51:57 15:56:59 84° 75° (ENE) 16:02:03 435.120 FM
SO-50 17 Apr 15:58:23 16:02:39 45° 118° (ESE) 16:06:58 436.795 FM
Gurwin Techsat 1B 17 Apr 16:15:31 16:19:15 19° 269° (W) 16:22:59 435.225 FM
RS-15 17 Apr 16:21:04 16:32:04 90° 60° (ENE) 16:43:20 29.354 - 29.394 USB, Beacon 29.352 USB
JAS-1B 17 Apr 16:31:01 16:39:02 50° 260° (W) 16:45:48 435.800 - 435.900 CW/SSB
OPAL 17 Apr 16:34:24 16:39:09 36° 295° (WNW) 16:43:53 ?
Hamsat 17 Apr 16:54:06 16:56:15 14° 62° (ENE) 16:58:26 145.90 MHz
AO-7 17 Apr 16:57:41 17:05:43 54° 258° (WSW) 17:13:48 29.400 - 29.500 MHz
UOSAT-12 17 Apr 16:57:53 16:58:27 10° 106° (ESE) 16:59:02 437.025 FM, 437.400 FM
ISS 17 Apr 17:26:25 17:29:40 47° 335° (NNW) 17:32:57 145.800 FM
Uosat F 17 Apr 17:34:37 17:36:25 12° 272° (W) 17:38:14 435.120 FM
SO-50 17 Apr 17:39:39 17:43:25 26° 318° (NW) 17:47:14 436.795 FM
SO-67 17 Apr 18:10:35 18:12:29 14° 66° (ENE) 18:14:23 435.3500 MHz FM
Hamsat 17 Apr 18:27:37 18:31:45 60° 260° (W) 18:35:58 145.90 MHz
UOSAT-12 17 Apr 18:33:15 18:37:49 86° 123° (ESE) 18:42:30 437.025 FM, 437.400 FM
RS-15 17 Apr 18:34:57 18:42:56 24° 258° (WSW) 18:51:07 29.354 - 29.394 USB, Beacon 29.352 USB
JAS-2 17 Apr 18:45:28 18:51:20 66° 73° (ENE) 18:56:40 435.800 - 435.900 CW/SSB, 435.910 FM
Saudisat 1A 17 Apr 18:56:34 18:59:45 19° 38° (NE) 19:02:54 436.775 MHz
ISS 17 Apr 19:04:18 19:06:59 22° 355° (N) 19:09:41 145.800 FM
STRAND 1 17 Apr 19:08:39 19:13:33 46° 99° (E) 19:18:25 ?
SO-67 17 Apr 19:42:03 19:45:20 38° 262° (W) 19:48:38 435.3500 MHz FM
HO-68 17 Apr 19:52:56 19:59:10 34° 60° (ENE) 20:05:26 435.675 MHz FM
UOSAT-12 17 Apr 20:15:29 20:18:37 18° 324° (NW) 20:21:47 437.025 FM, 437.400 FM
JAS-2 17 Apr 20:33:04 20:36:50 17° 268° (W) 20:40:24 435.800 - 435.900 CW/SSB, 435.910 FM
Saudisat 1A 17 Apr 20:35:25 20:39:50 70° 238° (WSW) 20:44:10 436.775 MHz
ISS 17 Apr 20:41:33 20:44:29 27° 15° (NNE) 20:47:25 145.800 FM
STRAND 1 17 Apr 20:48:27 20:52:28 24° 297° (WNW) 20:56:29 ?
FUNcube-1 17 Apr 21:18:24 21:20:58 16° 64° (ENE) 21:23:32 145.950 - 145.970 MHz USB
Oscar 11 17 Apr 21:32:12 21:36:28 68° 74° (ENE) 21:40:47 145.825 FM, Beacon 2401.500 USB
HO-68 17 Apr 21:39:43 21:46:37 52° 259° (W) 21:53:35 435.675 MHz FM
MaSat-1 17 Apr 22:06:05 22:09:02 67° 116° (ESE) 22:11:39 437.345 MHz
ISS 17 Apr 22:18:09 22:21:31 79° 214° (SW) 22:24:53 145.800 FM
SO-50 17 Apr 22:49:27 22:51:40 13° 32° (NNE) 22:53:54 436.795 FM
FUNcube-1 17 Apr 22:52:56 22:57:02 49° 260° (W) 23:01:06 145.950 - 145.970 MHz USB
Oscar 11 17 Apr 23:11:42 23:13:09 11° 271° (W) 23:14:35 145.825 FM, Beacon 2401.500 USB
Sapphire 17 Apr 23:45:02 23:47:13 12° 102° (ESE) 23:49:23 437.095 MHz 1200 baud AX-25 AFSK
ISS 17 Apr 23:56:54 23:57:45 11° 230° (SW) 23:58:36 145.800 FM
PCSat 18 Apr 00:27:02 00:31:47 32° 110° (ESE) 00:36:33 145.825 MHz
SO-50 18 Apr 00:28:34 00:33:10 62° 52° (NE) 00:37:50 436.795 FM
UOSAT-12 18 Apr 01:22:19 01:25:45 20° 38° (NE) 01:29:10 437.025 FM, 437.400 FM
Sapphire 18 Apr 01:24:23 01:29:48 88° 120° (ESE) 01:35:15 437.095 MHz 1200 baud AX-25 AFSK
AO-27 18 Apr 01:29:34 01:30:55 11° 87° (E) 01:32:16 436.795 MHz FM
ITAMSAT 1 18 Apr 01:39:37 01:42:16 14° 89° (E) 01:44:54 435.822 SSB
Oscar 19 18 Apr 01:47:01 01:51:39 32° 96° (E) 01:56:15 437.125 CW, 437.150 USB
Oscar 16 18 Apr 01:54:49 01:59:42 40° 98° (E) 02:04:33 437.025 USB, Beacon 2401.1428
KITSAT 1 18 Apr 01:55:37 02:01:22 22° 103° (ESE) 02:07:08 435.175 FM
AO-Echo 18 Apr 02:04:06 02:07:21 18° 91° (E) 02:10:32 ?
PCSat 18 Apr 02:09:59 02:15:05 41° 309° (NW) 02:20:13 145.825 MHz
SO-50 18 Apr 02:10:15 02:13:18 17° 249° (WSW) 02:16:23 436.795 FM
OPAL 18 Apr 02:11:47 02:16:44 64° 70° (ENE) 02:21:48 ?
Uribyol 2 18 Apr 02:26:49 02:31:42 41° 98° (E) 02:36:33 436.500 FM
Gurwin Techsat 1B 18 Apr 02:49:22 02:53:19 21° 92° (E) 02:57:15 435.225 FM
UOSAT-12 18 Apr 03:01:43 03:06:28 77° 237° (WSW) 03:11:09 437.025 FM, 437.400 FM
AO-27 18 Apr 03:05:57 03:11:10 88° 105° (ESE) 03:16:21 436.795 MHz FM
Sapphire 18 Apr 03:10:09 03:13:58 19° 320° (NW) 03:17:48 437.095 MHz 1200 baud AX-25 AFSK
ITAMSAT 1 18 Apr 03:17:10 03:22:20 75° 286° (WNW) 03:27:29 435.822 SSB
Oscar 19 18 Apr 03:26:19 03:30:59 35° 293° (WNW) 03:35:39 437.125 CW, 437.150 USB
Oscar 16 18 Apr 03:34:30 03:38:53 28° 295° (WNW) 03:43:15 437.025 USB, Beacon 2401.1428
TMSAT-1 18 Apr 03:37:57 03:42:57 41° 98° (E) 03:47:55 436.925 FM
AO-Echo 18 Apr 03:41:48 03:46:29 51° 289° (WNW) 03:51:02 ?
KITSAT 1 18 Apr 03:47:39 03:55:47 85° 302° (WNW) 04:03:58 435.175 FM
OPAL 18 Apr 03:52:58 03:56:05 16° 267° (W) 03:59:15 ?
PCSat 18 Apr 03:59:02 04:00:03 11° 332° (NNW) 04:01:05 145.825 MHz
Uosat F 18 Apr 03:59:04 04:03:02 23° 94° (E) 04:06:58 435.120 FM
Uribyol 2 18 Apr 04:06:41 04:10:59 27° 296° (WNW) 04:15:18 436.500 FM
JAS-1B 18 Apr 04:14:37 04:19:56 39° 98° (E) 04:25:20 435.800 - 435.900 CW/SSB
Gurwin Techsat 1B 18 Apr 04:28:26 04:33:36 53° 289° (WNW) 04:38:45 435.225 FM
AO-27 18 Apr 04:47:25 04:49:57 14° 303° (WNW) 04:52:28 436.795 MHz FM
STRAND 1 18 Apr 04:51:09 04:52:39 11° 56° (NE) 04:54:09 ?
AO-7 18 Apr 04:57:19 05:05:22 50° 101° (E) 05:13:22 29.400 - 29.500 MHz
ITAMSAT 1 18 Apr 04:59:27 05:00:57 11° 305° (NW) 05:02:27 435.822 SSB
TMSAT-1 18 Apr 05:18:15 05:22:42 28° 295° (WNW) 05:27:08 436.925 FM
